When you browse on this site, cookies collect data to enhance your experience and personalize the content and advertising you see.
Visit our Privacy Policy to learn more. By continuing to use the site, you agree to this use of cookies and data.
  • In Portugal
  • List of Countries
  • For 7 days
  • Water Temperature
  • Satellite Maps
  • Weather Map
  • Weather Widgets
  • user-avatar
    Login

    Hourly Weather Manuylovo

    Today, 23 July, Tuesday

    Time Temperature Precipitation Wind Pressure Humidity
    00:00 +16°C° 0 mm 1 mps 739 mmHg 85%
    01:00 +16°C° 0 mm 1 mps 738 mmHg 87%
    02:00 +15°C° 0 mm 1 mps 738 mmHg 89%
    03:00 +15°C° 0 mm 1 mps 738 mmHg 88%
    04:00 +16°C° 0 mm 1 mps 738 mmHg 88%
    05:00 +16°C° 0 mm 1 mps 738 mmHg 88%
    06:00 +18°C° 0 mm 1 mps 738 mmHg 84%
    07:00 +18°C° 0 mm 2 mps 738 mmHg 81%
    08:00 +19°C° 0 mm 2 mps 738 mmHg 77%
    09:00 +20°C° 0.4 mm 2 mps 738 mmHg 75%
    10:00 +21°C° 0.4 mm 2 mps 738 mmHg 74%
    11:00 +22°C° 0.4 mm 3 mps 738 mmHg 72%
    12:00 +23°C° 0.5 mm 2 mps 738 mmHg 71%
    13:00 +23°C° 0.5 mm 2 mps 738 mmHg 70%
    14:00 +23°C° 0.5 mm 2 mps 738 mmHg 69%
    15:00 +23°C° 0.4 mm 2 mps 738 mmHg 73%
    16:00 +21°C° 0.4 mm 2 mps 738 mmHg 77%
    17:00 +21°C° 0.4 mm 2 mps 738 mmHg 81%
    18:00 +20°C° 0.3 mm 2 mps 738 mmHg 85%
    19:00 +18°C° 0.3 mm 2 mps 738 mmHg 89%
    20:00 +17°C° 0.3 mm 2 mps 737 mmHg 93%
    21:00 +16°C° 0 mm 2 mps 738 mmHg 94%
    22:00 +15°C° 0 mm 2 mps 738 mmHg 94%
    23:00 +15°C° 0 mm 2 mps 738 mmHg 95%

    Tomorrow, 24 July, Wednesday

    Time Temperature Precipitation Wind Pressure Humidity
    00:00 +14°C° 0 mm 2 mps 738 mmHg 95%
    01:00 +14°C° 0 mm 2 mps 738 mmHg 95%
    02:00 +13°C° 0 mm 2 mps 738 mmHg 95%
    03:00 +13°C° 0 mm 2 mps 738 mmHg 95%
    04:00 +13°C° 0 mm 2 mps 738 mmHg 94%
    05:00 +13°C° 0 mm 2 mps 738 mmHg 94%
    06:00 +15°C° 0 mm 2 mps 739 mmHg 88%
    07:00 +17°C° 0 mm 2 mps 739 mmHg 82%
    08:00 +18°C° 0 mm 3 mps 739 mmHg 76%
    09:00 +20°C° 0 mm 3 mps 739 mmHg 68%
    10:00 +21°C° 0 mm 3 mps 739 mmHg 60%
    11:00 +24°C° 0 mm 3 mps 739 mmHg 52%
    12:00 +24°C° 0 mm 3 mps 739 mmHg 50%
    13:00 +23°C° 0 mm 4 mps 739 mmHg 48%
    14:00 +25°C° 0 mm 4 mps 739 mmHg 46%
    15:00 +23°C° 0 mm 4 mps 739 mmHg 48%
    16:00 +23°C° 0 mm 4 mps 739 mmHg 50%
    17:00 +22°C° 0 mm 4 mps 739 mmHg 52%
    18:00 +20°C° 0 mm 4 mps 739 mmHg 58%
    19:00 +19°C° 0 mm 4 mps 739 mmHg 65%
    20:00 +17°C° 0 mm 3 mps 739 mmHg 71%
    21:00 +16°C° 0 mm 3 mps 739 mmHg 74%
    22:00 +14°C° 0 mm 3 mps 739 mmHg 77%
    23:00 +13°C° 0 mm 3 mps 739 mmHg 81%

    Day after tomorrow, 25 July, Thursday

    Time Temperature Precipitation Wind Pressure Humidity
    00:00 +13°C° 0 mm 3 mps 739 mmHg 82%
    01:00 +12°C° 0 mm 3 mps 739 mmHg 83%
    02:00 +12°C° 0 mm 3 mps 738 mmHg 85%
    03:00 +12°C° 0.1 mm 3 mps 738 mmHg 86%
    04:00 +12°C° 0.1 mm 3 mps 738 mmHg 87%
    05:00 +12°C° 0.1 mm 3 mps 738 mmHg 88%
    06:00 +12°C° 0.5 mm 3 mps 738 mmHg 90%
    07:00 +14°C° 0.5 mm 2 mps 738 mmHg 91%
    08:00 +14°C° 0.5 mm 2 mps 738 mmHg 93%
    09:00 +15°C° 0.8 mm 2 mps 738 mmHg 94%
    10:00 +15°C° 0.8 mm 2 mps 739 mmHg 95%
    11:00 +14°C° 0.8 mm 3 mps 739 mmHg 95%
    12:00 +17°C° 0.1 mm 2 mps 739 mmHg 91%
    13:00 +18°C° 0.1 mm 2 mps 739 mmHg 87%
    14:00 +20°C° 0.1 mm 2 mps 739 mmHg 83%
    15:00 +20°C° 0.6 mm 2 mps 739 mmHg 85%
    16:00 +20°C° 0.6 mm 2 mps 739 mmHg 86%
    17:00 +20°C° 0.6 mm 2 mps 740 mmHg 88%
    18:00 +19°C° 0.8 mm 2 mps 740 mmHg 91%
    19:00 +18°C° 0.8 mm 3 mps 740 mmHg 94%
    20:00 +17°C° 0.8 mm 3 mps 740 mmHg 96%
    21:00 +17°C° 0.1 mm 3 mps 740 mmHg 97%
    22:00 +17°C° 0.1 mm 3 mps 741 mmHg 97%
    23:00 +17°C° 0.1 mm 3 mps 741 mmHg 97%

    26 July, Friday

    Time Temperature Precipitation Wind Pressure Humidity
    00:00 +17°C° 0 mm 3 mps 741 mmHg 97%
    01:00 +17°C° 0 mm 3 mps 741 mmHg 97%
    02:00 +17°C° 0 mm 3 mps 741 mmHg 97%
    03:00 +17°C° 0 mm 3 mps 742 mmHg 97%
    04:00 +17°C° 0 mm 3 mps 742 mmHg 97%
    05:00 +16°C° 0 mm 3 mps 742 mmHg 97%
    06:00 +18°C° 0 mm 3 mps 742 mmHg 93%
    07:00 +19°C° 0 mm 4 mps 742 mmHg 89%
    08:00 +20°C° 0 mm 4 mps 742 mmHg 84%
    09:00 +22°C° 0 mm 4 mps 743 mmHg 76%
    10:00 +25°C° 0 mm 4 mps 743 mmHg 67%
    11:00 +26°C° 0 mm 4 mps 743 mmHg 59%
    12:00 +27°C° 0.1 mm 4 mps 743 mmHg 59%
    13:00 +27°C° 0.1 mm 4 mps 742 mmHg 59%
    14:00 +27°C° 0.1 mm 4 mps 742 mmHg 58%
    15:00 +26°C° 0.1 mm 4 mps 742 mmHg 61%
    16:00 +26°C° 0.1 mm 4 mps 742 mmHg 63%
    17:00 +26°C° 0.1 mm 4 mps 742 mmHg 66%
    18:00 +24°C° 0 mm 3 mps 742 mmHg 72%
    19:00 +22°C° 0 mm 3 mps 742 mmHg 79%
    20:00 +20°C° 0 mm 2 mps 742 mmHg 85%
    21:00 +19°C° 0 mm 2 mps 743 mmHg 88%
    22:00 +19°C° 0 mm 2 mps 743 mmHg 91%
    23:00 +18°C° 0 mm 2 mps 743 mmHg 95%

    27 July, Saturday

    Time Temperature Precipitation Wind Pressure Humidity
    00:00 +17°C° 0 mm 2 mps 743 mmHg 95%
    01:00 +17°C° 0 mm 2 mps 743 mmHg 96%
    02:00 +16°C° 0 mm 2 mps 742 mmHg 96%
    03:00 +17°C° 0 mm 2 mps 742 mmHg 95%
    04:00 +17°C° 0 mm 2 mps 743 mmHg 95%
    05:00 +17°C° 0 mm 2 mps 743 mmHg 94%
    06:00 +19°C° 0 mm 2 mps 743 mmHg 86%
    07:00 +21°C° 0 mm 2 mps 743 mmHg 79%
    08:00 +23°C° 0 mm 2 mps 743 mmHg 71%
    09:00 +25°C° 0 mm 2 mps 743 mmHg 65%
    10:00 +26°C° 0 mm 3 mps 742 mmHg 58%
    11:00 +28°C° 0 mm 3 mps 742 mmHg 52%
    12:00 +28°C° 0 mm 3 mps 742 mmHg 50%
    13:00 +28°C° 0 mm 3 mps 742 mmHg 49%
    14:00 +29°C° 0 mm 3 mps 741 mmHg 48%
    15:00 +28°C° 0 mm 3 mps 741 mmHg 52%
    16:00 +28°C° 0 mm 3 mps 741 mmHg 57%
    17:00 +27°C° 0 mm 2 mps 740 mmHg 62%
    18:00 +25°C° 0 mm 2 mps 740 mmHg 69%
    19:00 +24°C° 0 mm 2 mps 740 mmHg 77%
    20:00 +21°C° 0 mm 2 mps 740 mmHg 85%
    21:00 +20°C° 0 mm 2 mps 740 mmHg 87%
    22:00 +19°C° 0 mm 2 mps 740 mmHg 90%
    23:00 +19°C° 0 mm 2 mps 740 mmHg 92%

    28 July, Sunday

    Time Temperature Precipitation Wind Pressure Humidity
    00:00 +18°C° 0 mm 2 mps 740 mmHg 92%
    01:00 +17°C° 0 mm 2 mps 739 mmHg 91%
    02:00 +17°C° 0 mm 2 mps 739 mmHg 91%
    03:00 +17°C° 0 mm 2 mps 739 mmHg 92%
    04:00 +17°C° 0 mm 2 mps 739 mmHg 92%
    05:00 +17°C° 0 mm 2 mps 739 mmHg 93%
    06:00 +18°C° 0 mm 3 mps 739 mmHg 88%
    07:00 +19°C° 0 mm 3 mps 740 mmHg 83%
    08:00 +20°C° 0 mm 3 mps 740 mmHg 79%
    09:00 +20°C° 0 mm 4 mps 740 mmHg 71%
    10:00 +21°C° 0 mm 4 mps 740 mmHg 64%
    11:00 +21°C° 0 mm 4 mps 741 mmHg 56%
    12:00 +22°C° 0 mm 4 mps 741 mmHg 52%
    13:00 +22°C° 0 mm 4 mps 740 mmHg 48%
    14:00 +22°C° 0 mm 4 mps 740 mmHg 44%
    15:00 +22°C° 0 mm 4 mps 740 mmHg 44%
    16:00 +21°C° 0 mm 4 mps 740 mmHg 43%
    17:00 +21°C° 0 mm 4 mps 740 mmHg 43%
    18:00 +19°C° 0 mm 3 mps 740 mmHg 50%
    19:00 +16°C° 0 mm 3 mps 740 mmHg 57%
    20:00 +14°C° 0 mm 2 mps 741 mmHg 64%
    21:00 +13°C° 0 mm 2 mps 741 mmHg 66%
    22:00 +12°C° 0 mm 2 mps 741 mmHg 69%
    23:00 +10°C° 0 mm 2 mps 742 mmHg 71%
    Show more